User: anonymous   Login
Location: Unspecified
(38.9917°N, 0.0000°E)
Time: 09:40:50
(UTC+00:00)
Language:

RS-15 - Orbit

View from above orbital plane
View from above orbital plane
View from above satellite
View from above satellite

Ground track
Ground track

The orbit data is extracted from the following two-line orbital elements,

1 23439U 94085A   19232.92975759 -.00000055 +00000-0 -34620-3 0  9997
2 23439 064.8190 013.8586 0145940 100.9706 260.7673 11.27568615015029
Epoch (UTC): 20 August 2019 22:18:51
Eccentricity: 0.0145940
inclination: 64.8190°
perigee height: 1900 km
apogee height: 2145 km
right ascension of ascending node: 13.8586°
argument of perigee: 100.9706°
revolutions per day: 11.27568615
mean anomaly at epoch: 260.7673°
orbit number at epoch: 1502

The dashed part of the orbit path shows where the satellite is in the earth's shadow,  

DLR